sat.trackr.live / text

‹ back to catalog

ONEWEB-0087

NORAD 45451 · 2020-020AD

PAYLOAD ACTIVE UNKNOWN

§ Identity

Operator
Country
UK
Launch date
2020-03-21
Launch site
TYMSC
Launch vehicle
Mass (kg)
RCS (m²)

Purposes: comms

External: N2YO · Heavens-Above · Gunter

§ Orbital elements

Epoch: 2026-09-20T02:19:45.761088Z

Period
109.80 min
Inclination
87.8970°
Eccentricity
0.0002157
Mean motion
13.11418880 rev/d
Perigee alt
1,216.0 km
Apogee alt
1,219.3 km
Semi-major
7,595.8 km
B*
-1.0840e-4
RAAN
2.1864°
Arg perigee
98.2876°
Mean anomaly
261.8496°
Rev number
31,502

§ Raw data

ONEWEB-00871 45451U 20020AD  26263.09705742 -.00000026  00000+0 -10840-3 0  99912 45451  87.8970   2.1864 0002157  98.2876 261.8496 13.11418880315028

JSON: /api/v1/satellites/45451 · /tle

For live sub-satellite position, see the globe view (requires WebGL).

§ Visibility from observer

Set your observer location to see the next 7 days of passes ≥ 10°. The values pass through the URL so the page stays shareable.

No JS? Fill the form by hand. The geolocation button needs JavaScript.